NOAA 16 DEB

Satellite information

Favourite Embed

Satellite Type and Status

DEBRISIN ORBIT

Key statistics

Satellite NOAA 16 DEB at a glance.

Uptime

9214

Days in orbit

Revolutions

≈ 14.8

Per day

Orbit

SSO

Sun Synchronous Orbit

Inclination

98.9

Latest

Satellite identification and parameters

Extended collection of information and parameters for NOAA 16 DEB.

Object identification

Identified? True

Debris? True

Object name: NOAA 16 DEB

International designator: 2000-055HK

Object number (NORAD): 41307

Object ID (CCSDS): 41307

Country: UNITED STATES OF AMERICA (US)

Current information (Y/N): Y

RCS size: SMALL

Orbital parameters

Period: 97.128 minutes

Inclination: 98.9071 deg

SMA: 6999.344 km

Apoapsis: 624.348 km

Periapsis: 618.069 km

RAAN: 158.3354 deg

Eccentricy: 0.00044851

Argument of periapsis: 31.2332 deg

Mean anomaly: 328.9144 deg

Mean motion: 14.82575416 rev/day

Mean motion (dot): 0.00114831 rev/day2

B* drag term: 0.01404447 1/REarth

Two-line elements (TLE)

Creation date: Dec. 11, 2025, 7:14 p.m.

Reference frame: TEME

Reference center: EARTH

Epoch: Dec. 11, 2025, 10:40 a.m. UTC

TLE line 0: 0 NOAA 16 DEB

TLE line 1: 1 41307U 00055HK 25345.44478801 .00114831 00000-0 14044-1 0 9992

TLE line 2: 2 41307 98.9071 158.3354 0004485 31.2332 328.9144 14.82575416517451

Live tracking on map

Real-time ground track for satellite NOAA 16 DEB.

In-orbit conjunctions

A list of the most updated potential collisions computed for object NOAA 16 DEB.

Target Orbit TCA Probability of collision Miss distance Type
SL-8 R/B LEO 2025-03-24 14:29:57 0.0007107983 214.0 (m) ROCKET BODY
DMSP 5D-2 F15 DEB SSO 2024-11-14 22:19:55 0.001335741 91.0 (m) DEBRIS
CZ-6A DEB LEO 2024-09-22 14:22:27 0.0003650768 88.0 (m) DEBRIS

Associated space launch

The NOAA K, L and M POES satellites begin the fifth generation of improved environmental monitoring in support of NOAA missions. The instrument payload has significant improvements and additions/deletions. The instrument changes have effected the spacecraft subsystems and data formats.

NOAA 16 DEB was lifted into orbit during the mission ‘Titan II SLV | NOAA 16’, on board a Titan II SLV space rocket.

The launch took place on Sept. 21, 2000, 10:22 a.m. from Space Launch Complex 4W.

For more information about the launch, click the button.

Launch to space Titan II SLV | NOAA 16
Titan II SLV | NOAA 16

Agency: N/A

Status: Launch Successful

Launch date: Sept. 21, 2000, 10:22 a.m. UTC

Rocket: Titan II SLV

Launch pad: Space Launch Complex 4W

Location: Vandenberg SFB, CA, USA

...

Latest news about this satellite

There are no fresh news available about this satellite. Check back as we update our databases every day.


Newsletter sign-up

Weekly statistics, charts and insights to help you stay on top of the space industry.